Station 45002 (LLNR 18310) - NORTH MICHIGAN- Halfway between North Manitou and Washington Islands. Image indicating link to RSS feed of recent meteorological observations for station 45002


Conditions at 45002 as of
(3:10 am EDT)
0710 GMT on 05/22/2024:
     

Click on the graph icon in the table below to see a time series plot of the last five days of that observation.

5-day plot - Wind Direction Wind Direction (WDIR):ESE ( 120 deg true )
5-day plot - Wind Speed Wind Speed (WSPD):7.0 m/s
5-day plot - Wind Gust Wind Gust (GST):9.0 m/s
5-day plot - Atmospheric Pressure Atmospheric Pressure (PRES):998.5 mb
5-day plot - Air Temperature Air Temperature (ATMP): 12.1 °C
5-day plot - Water Temperature Water Temperature (WTMP): 8.6 °C
5-day plot - Dew Point Dew Point (DEWP): 12.1 °C
5-day plot - Wind Speed at 10 Meters Wind Speed at 10 meters (WSPD10M): 8 m/s
5-day plot - Wind Speed at 20 Meters Wind Speed at 20 meters (WSPD20M): 9 m/s
5-day plot -  Wind Speed, Wind Gust and Atmospheric Pressure Combined plot of Wind Speed, Gust, and Air Pressure
Supplemental Measurements
Highest 1-minute Wind Speed
Time (EDT)5-day plot - 1-Minute Wind Speed WSPD 5-day plot - 1-Minute Wind Direction WDIR
3:04 am 8 m/s-
Previous observations
TIME
(EDT)
5-day plot - Wind Direction
WDIR
 
5-day plot - Wind Speed
WSPD
m/s
5-day plot - Wind Gust
GST
m/s
5-day plot - Wave Height
WVHT
m
5-day plot - Dominant Wave Period
DPD
sec
5-day plot - Average Wave Period
APD
sec
5-day plot - Mean Wave Direction
MWD
 
5-day plot - Atmospheric Pressure
PRES
mb
5-day plot - Pressure Tendency
PTDY
mb
5-day plot - Air Temperature
ATMP
°C
5-day plot - Water Temperature
WTMP
°C
5-day plot - Dew Point
DEWP
°C
5-day plot - Salinity
SAL
psu
5-day plot - Visibility
VIS
km
5-day plot - Tide (above MLLW)
TIDE
m
2024-05-22 03:00 amESE 7.0 8.0----998.4 +0.3 12.2 8.5 12.2---
2024-05-22 02:50 amESE 7.0 9.0 0.5 33.1SSE998.4- 12.2 8.6 12.2---
2024-05-22 02:40 amESE 6.0 8.0 0.5-3.1SSE999.6- 11.4 8.5 11.4---
2024-05-22 02:30 amESE 6.0 8.0----1000.9- 11.5 8.5 11.5---
2024-05-22 02:20 am E 5.0 7.0 0.6 33.2 S1000.5- 11.2 8.5 11.2---
2024-05-22 02:10 amESE 4.0 6.0 0.6-3.2 S1001.0- 11.0 8.5 11.0---
2024-05-22 02:00 am SE 4.0 5.0----1000.5 +0.3 11.1 8.6 11.1---
2024-05-22 01:50 amSSE 4.0 5.0 0.6 33.1SSW1001.8- 11.2 8.6 11.2---
2024-05-22 01:40 am S 4.0 5.0----1002.2- 11.1 8.7 11.1---
2024-05-22 01:30 amSSE 3.0 4.0 0.6-3.1SSW1002.3- 11.1 8.7 11.1---
2024-05-22 01:20 am SE 5.0 6.0 0.6 33.0 SW1001.0- 10.9 8.7 10.9---
2024-05-22 01:10 am SE 5.0 5.0 0.6-3.0 SW1001.6- 11.1 8.7 11.1---
2024-05-22 01:00 am SE 3.0 4.0----1000.8 +0.0 11.4 8.8 11.4---
2024-05-22 12:50 amSSW 2.0 4.0 0.6 32.9SSW1001.1- 11.9 8.8 11.9---
2024-05-22 12:40 amWSW 6.0 8.0----1001.8- 12.1 8.8 12.1---
2024-05-22 12:30 am SW 9.0 11.0----1002.8- 12.7 8.8 12.5---
2024-05-22 12:20 am SW 11.0 17.0 0.5 33.0 E1002.8- 13.5 8.9 13.2---
2024-05-22 12:10 amSSW 11.0 18.0----1002.4- 14.3 8.9 12.6---
2024-05-22 12:00 amESE 8.0 10.0----998.3 -4.2 14.3 9.0 12.9---
2024-05-21 11:50 pmESE 9.0 11.0 0.5 32.9ESE998.6- 14.7 9.0 13.1---
2024-05-21 11:40 pmESE 9.0 11.0----998.6- 14.7 9.1 13.0---
2024-05-21 11:30 pmESE 9.0 10.0----999.4- 14.8 9.2 12.9---
2024-05-21 11:20 pmESE 9.0 10.0 0.4 32.7ESE999.9- 14.7 9.2 12.7---
2024-05-21 11:10 pmESE 9.0 11.0 0.4-2.7ESE1000.0- 14.6 9.3 12.6---
2024-05-21 11:00 pmESE 8.0 9.0----1000.6 -4.2 14.5 9.2 12.5---
2024-05-21 10:50 pmESE 8.0 9.0 0.4 32.7 E1000.7- 14.2 9.3 12.5---
2024-05-21 10:40 pmESE 7.0 8.0----1001.1- 13.7 9.3 12.3---
2024-05-21 10:30 pmESE 7.0 8.0----1000.9- 13.1 9.4 11.8---
2024-05-21 10:20 pmESE 7.0 8.0 0.3 32.6 E1000.9- 13.0 9.5 11.8---
2024-05-21 10:10 pm E 7.0 8.0----1000.9- 13.0 9.6 11.8---
2024-05-21 10:00 pm E 7.0 8.0----1000.8 -4.5 12.5 9.7 11.5---
2024-05-21 09:50 pm E 7.0 8.0 0.3 32.5 E1000.7- 12.5 9.8 11.4---
2024-05-21 09:40 pm E 7.0 8.0----1001.1- 12.5 10.0 11.5---
2024-05-21 09:30 pm E 6.0 8.0----1001.2- 12.1 10.0 11.5---
2024-05-21 09:20 pm E 6.0 6.0 0.2-2.4-1001.6- 11.9 10.1 11.3---
2024-05-21 09:10 pmENE 6.0 6.0----1002.1- 11.8 10.1 11.3---
2024-05-21 09:00 pmENE 5.0 6.0----1002.4 -3.3 11.8 10.2 11.3---
2024-05-21 08:50 pm E 5.0 6.0 0.2-2.3-1002.9- 12.1 10.3 11.4---
2024-05-21 08:40 pmENE 5.0 6.0 0.2-2.3-1003.2- 12.3 10.4 11.6---
2024-05-21 08:30 pmENE 4.0 5.0----1003.6- 12.3 10.4 11.6---
2024-05-21 08:20 pmENE 4.0 4.0 0.1-2.2-1004.0- 12.6 10.3 11.7---
2024-05-21 08:10 pmENE 4.0 5.0 0.1-2.2-1004.2- 12.4- 11.9---
2024-05-21 08:00 pm NE 4.0 5.0----1004.4 -3.4 12.1 10.4 11.6---
2024-05-21 07:50 pm NE 4.0 5.0 0.1-2.2-1004.7- 11.9 10.5 11.5---
2024-05-21 07:40 pm NE 3.0 4.0----1004.9- 11.7 10.5 11.3---
2024-05-21 07:30 pmNNE 3.0 4.0----1005.0- 11.6 10.5 11.1---
2024-05-21 07:20 pmNNE 4.0 5.0 0.1-2.5-1005.1- 11.9 10.6 11.3---
2024-05-21 07:10 pmNNE 4.0 6.0 0.1-2.5-1005.1- 12.0 10.5 11.3---
2024-05-21 07:00 pmNNE 3.0 5.0----1005.1 -3.8 12.3 10.5 11.3---
2024-05-21 06:50 pm NE 4.0 6.0 0.0-3.4-1005.2- 12.4 10.5 11.6---
2024-05-21 06:40 pm N 4.0 8.0----1005.6- 14.3 10.6 12.0---
2024-05-21 06:30 pm NW 5.0 9.0----1005.9- 13.7 10.6 12.7---
2024-05-21 06:20 pm NW 3.0 7.0 0.0-3.3-1006.7- 12.8 10.4 12.2---
2024-05-21 06:10 pm E 3.0 6.0 0.0-3.3-1006.1- 12.9 10.5 12.1---
2024-05-21 06:00 pm E 5.0 6.0----1005.6 -4.4 12.3 10.6 11.8---
2024-05-21 05:50 pm E 5.0 6.0 0.0-3.4-1005.3- 12.0 10.7 11.6---
2024-05-21 05:40 pmENE 3.0 5.0----1005.9- 11.9 10.5 11.6---
2024-05-21 05:30 pmENE 2.0 3.0----1007.1- 11.9 10.7 11.5---
2024-05-21 05:20 pmENE 2.0 3.0 0.1-3.2-1007.3- 12.1 10.5 11.7---
2024-05-21 05:10 pmENE 2.0 3.0----1007.6- 12.1 10.5 11.6---
2024-05-21 05:00 pmENE 2.0 3.0----1007.7 -3.1 12.1 10.6 11.6---
2024-05-21 04:50 pmENE 3.0 3.0 0.0-3.0-1008.0- 12.1 10.8 11.6---
2024-05-21 04:40 pmENE 3.0 4.0----1008.0- 12.2 10.9 11.7---
2024-05-21 04:30 pmENE 3.0 4.0----1008.0- 12.2 10.4 11.6---
2024-05-21 04:20 pm E 2.0 3.0 0.0-2.9-1008.5- 12.4 10.0 11.5---
2024-05-21 04:10 pm E 1.0 2.0 0.0-2.9-1009.0- 12.3 9.6 11.4---
2024-05-21 04:00 pm E 2.0 2.0----1009.0 -2.4 12.2 9.7 11.3---
2024-05-21 03:50 pm E 2.0 3.0 0.0-3.1-1009.2- 12.2 9.9 11.3---
2024-05-21 03:40 pm E 2.0 3.0----1009.3- 12.3 9.8 11.3---
2024-05-21 03:30 pm E 2.0 3.0----1009.5- 12.3 9.8 11.1---
2024-05-21 03:20 pm E 1.0 2.0 0.0-3.0-1009.9- 12.1 9.8 10.9---
2024-05-21 03:10 pm E 1.0 2.0 0.0-3.0-1010.2- 11.7- 10.8---
2024-05-21 03:00 pmENE 2.0 2.0----1010.0 -1.9 11.6 10.0 10.7---
2024-05-21 02:50 pmENE 2.0 2.0 0.0-3.2-1010.0- 11.5 9.9 10.6---
2024-05-21 02:40 pmENE 2.0 3.0 0.0-3.2-1010.0- 11.5 10.0 10.5---
2024-05-21 02:30 pmENE 3.0 3.0----1010.0- 11.5 9.8 10.5---
2024-05-21 02:20 pmENE 3.0 4.0 0.0-3.0-1010.2- 11.5 10.0 10.4---
2024-05-21 02:10 pmENE 3.0 4.0 0.0-3.0-1010.4- 11.7 9.2 10.3---
2024-05-21 02:00 pmENE 2.0 2.0----1010.8 -0.7 11.9 9.8 10.1---
2024-05-21 01:50 pmENE 1.0 2.0 0.0-3.0-1011.1- 11.9 9.5 10.1---
2024-05-21 01:40 pm NE 1.0 2.0----1011.4- 11.8 9.2 9.9---
2024-05-21 01:30 pm- 0.0 1.0----1011.6- 11.6 9.1 9.8---
2024-05-21 01:20 pmENE 1.0 2.0 0.0-3.5-1011.6- 11.2 9.1 9.7---
2024-05-21 01:10 pm NE 3.0 3.0 0.0-3.5-1011.3- 11.2 9.1 9.6---
2024-05-21 01:00 pmENE 3.0 3.0----1011.3 -1.1 11.5 9.1 9.3---
2024-05-21 12:50 pm E 1.0 2.0 0.0-3.7-1011.5- 11.5 9.0 9.3---
2024-05-21 12:40 pm E 1.0 1.0----1011.8- 11.3 9.0 9.5---
2024-05-21 12:30 pm E 1.0 1.0----1011.9- 10.8 9.0 9.5---
2024-05-21 12:20 pmENE 1.0 2.0 0.1-3.2-1011.9- 10.5 9.1 9.5---
2024-05-21 12:10 pmENE 2.0 2.0 0.1-3.2-1012.0- 10.4 9.1 9.6---
2024-05-21 12:00 pmENE 2.0 3.0----1011.8 -0.5 10.3 9.0 9.4---
2024-05-21 11:50 amENE 2.0 2.0 0.1-4.2-1012.0- 10.3 9.2 9.4---
2024-05-21 11:40 am NE 1.0 2.0----1012.0- 10.3 9.1 9.4---
2024-05-21 11:30 am N 1.0 2.0----1012.1- 10.0 9.2 9.2---
2024-05-21 11:20 am N 2.0 2.0 0.0-3.6-1011.7- 9.8 9.0 9.2---
2024-05-21 11:10 am N 2.0 3.0 0.0-3.6-1011.5- 9.8 9.0 9.1---
2024-05-21 11:00 am N 2.0 2.0----1011.6 -0.5 9.8 8.9 9.1---
2024-05-21 10:50 amNNW 2.0 3.0 0.1-4.3-1011.7- 9.7 8.9 8.9---
2024-05-21 10:40 amNNW 2.0 2.0 0.1-4.3-1011.9- 9.7 8.9 8.8---
2024-05-21 10:30 am W 3.0 4.0----1012.2- 9.7 8.9 8.7---
2024-05-21 10:20 amWSW 4.0 5.0 0.1-3.9-1012.6- 9.7 8.9 8.5---
2024-05-21 10:10 amWSW 3.0 4.0 0.1-3.9-1012.5- 9.9 8.8 8.6---
2024-05-21 10:00 am SW 3.0 4.0----1012.5 +0.5 10.2 8.8 8.8---
2024-05-21 09:50 am SW 2.0 2.0 0.0-3.6-1012.3- 10.3 8.8 8.7---
2024-05-21 09:40 am SW 2.0 2.0 0.0-3.6-1012.2- 10.3 8.7 8.7---
2024-05-21 09:30 am SW 1.0 2.0----1012.2- 10.3- 8.5---
2024-05-21 09:20 am SW 1.0 1.0 0.0-3.6-1012.2- 10.2 8.7 8.5---
2024-05-21 09:10 am SW 1.0 1.0 0.0-3.6-1012.2- 10.0 8.7 8.5---
2024-05-21 09:00 amSSW 1.0 1.0----1012.3 +0.8 9.6 8.7 8.5---
2024-05-21 08:50 amSSW 2.0 2.0 0.0-3.4-1012.5- 9.5 8.7 8.5---
2024-05-21 08:40 amSSW 2.0 2.0----1012.5- 9.5 8.7 8.6---
2024-05-21 08:30 amSSW 2.0 2.0----1012.5- 9.5 8.6 8.5---
2024-05-21 08:20 amSSW 1.0 1.0 0.0-3.5-1012.3- 9.5 8.6 8.5---
2024-05-21 08:10 amSSW 1.0 2.0 0.0-3.5-1012.1- 9.6 8.6 8.4---
2024-05-21 08:00 amSSE 1.0 1.0----1012.0 +0.5 9.8 8.6 8.5---
2024-05-21 07:50 amESE 1.0 2.0 0.0-2.9-1011.8- 9.8 8.6 8.5---
2024-05-21 07:40 amENE 2.0 2.0----1011.6- 9.7 8.6 8.7---
2024-05-21 07:30 amENE 2.0 3.0----1011.7- 9.6 8.5 8.8---
2024-05-21 07:20 am E 2.0 3.0 0.0-3.0-1011.8- 9.6 8.6 8.7---
2024-05-21 07:10 am E 2.0 2.0 0.0-3.0-1011.9- 10.1 8.6 8.9---
2024-05-21 07:00 am E 1.0 2.0----1011.8 +0.4 10.5 8.6 9.0---
2024-05-21 06:50 am E 1.0 1.0 0.0-3.4-1012.0- 10.3 8.6 9.0---
2024-05-21 06:40 am E 1.0 1.0----1011.9- 9.7 8.6 9.0---
2024-05-21 06:30 am- 0.0 1.0----1011.9- 9.5 8.6 9.2---
2024-05-21 06:20 amENE 1.0 1.0 0.0-3.0-1011.8- 9.4 8.6 9.1---
2024-05-21 06:10 amNNE 2.0 2.0 0.0-3.0-1011.6- 9.6 8.6 9.2---
2024-05-21 06:00 am N 3.0 3.0----1011.5 -0.2 9.7 8.6 9.3---
2024-05-21 05:50 amNNW 3.0 3.0 0.0-2.7-1011.2- 9.7 8.6 9.1---
2024-05-21 05:40 amNNW 3.0 3.0----1011.2- 9.8 8.7 9.1---
2024-05-21 05:30 amNNW 2.0 3.0----1011.3- 9.9 8.7 9.2---
2024-05-21 05:20 amNNW 2.0 3.0 0.0-2.7-1011.1- 10.0 8.7 9.3---
2024-05-21 05:10 am NW 3.0 3.0----1011.3- 10.1 8.7 9.3---
2024-05-21 05:00 am NW 3.0 3.0----1011.5 +0.3 10.1 8.8 9.3---
2024-05-21 04:50 am NW 3.0 3.0 0.0-2.5-1011.7- 10.0 8.8 8.7---
2024-05-21 04:40 am NW 2.0 3.0----1011.6- 9.9 8.8 8.4---
2024-05-21 04:30 amWNW 2.0 2.0----1011.6- 9.8 8.8 8.2---
2024-05-21 04:20 am NW 2.0 2.0 0.0-2.9-1011.5- 9.7 8.8 7.8---
2024-05-21 04:10 am NW 1.0 2.0 0.0-2.9-1011.4- 9.7 8.9 7.9---
2024-05-21 04:00 amWNW 2.0 3.0----1011.5 +0.2 9.5 8.8 8.2---
2024-05-21 03:50 am NW 2.0 3.0 0.0-2.9-1011.5- 9.5 8.8 8.4---
2024-05-21 03:40 amNNW 2.0 2.0----1011.2- 9.5 8.7 8.6---
2024-05-21 03:30 amNNW 1.0 2.0----1011.3- 9.4 8.7 8.6---
2024-05-21 03:20 am NW 2.0 2.0 0.0-2.9-1011.4- 9.6 8.7 8.6---
2024-05-21 03:10 amNNW 2.0 2.0 0.0-2.9-1011.5- 9.6 8.7 8.3---
2024-05-21 03:00 am NW 2.0 2.0----1011.7 +0.4 9.4- 8.3---
2024-05-21 02:50 am NW 2.0 3.0 0.0-3.1-1011.9- 9.3 8.8 8.3---

Detailed Wave Summary
for 45002 as of (2:40 am EDT)
0640 GMT on 05/22/2024:

These wave data are displayed in rounded times.

     

Click on the graph icon in the table below to see a time series plot of the last five days of that observation.

5-day plot - Significant Wave Height Significant Wave Height (WVHT): 0.5 m
5-day plot - Swell Height Swell Height (SwH): 0.0 m
5-day plot - Swell Period Swell Period (SwP): 7.7 sec
5-day plot - Swell Direction Swell Direction (SwD): S
5-day plot - Wind Wave Height Wind Wave Height (WWH): 0.5 m
5-day plot - Wind Wave Period Wind Wave Period (WWP): 3.4 sec
5-day plot - Wind Wave Direction Wind Wave Direction (WWD):SSE
5-day plot - Average Wave Period Average Wave Period (APD): 3.1 sec
Previous observations
TIME
(EDT)
5-day plot - Wave Height
WVHT
m
5-day plot - Swell Height
SwH
m
5-day plot - Swell Period
SwP
sec
5-day plot - Swell Direction
SwD
 
5-day plot - Wind Wave Height
WWH
m
5-day plot - Wind Wave Period
WWP
sec
5-day plot - Wind Wave Direction
WWD
 
5-day plot - Wave Steepness
STEEPNESS
 
5-day plot - Average Wave Period
APD
sec
2024-05-22 02:10 am 0.6 0.1 7.1 SW 0.5 3.3 S N/A 3.2
2024-05-22 01:40 am 0.6 0.1 4.3ENE 0.6 3.3 SSW N/A 3.1
2024-05-22 01:10 am 0.6 0.0 5.6NNE 0.6 3.2 SW N/A 3.0
2024-05-22 12:40 am 0.6 0.1 5.9SSE 0.6 2.9 SSW N/A 2.9
2024-05-22 12:10 am 0.5 0.1 7.7ENE 0.5 3.3 E N/A 3.0
2024-05-21 11:40 pm 0.5 0.0 5.9SSE 0.5 3.0 ESE N/A 2.9
2024-05-21 11:10 pm 0.4 0.0 6.7 N 0.4 2.9 ESE N/A 2.7
2024-05-21 10:40 pm 0.4 0.0 6.2ESE 0.4 2.7 E N/A 2.7
2024-05-21 10:10 pm 0.3 0.0 6.7ENE 0.3 2.9 E N/A 2.6
2024-05-21 09:40 pm 0.3 0.0 6.7ENE 0.3 2.6 E N/A 2.5
2024-05-21 09:10 pm 0.2------ N/A 2.4
2024-05-21 08:40 pm 0.2------ N/A 2.3
2024-05-21 08:10 pm 0.1------ N/A 2.2
2024-05-21 07:40 pm 0.1------ N/A 2.2
2024-05-21 07:10 pm 0.1------ N/A 2.5
2024-05-21 06:40 pm 0.0------ N/A 3.4
2024-05-21 06:10 pm 0.0------ N/A 3.3
2024-05-21 05:40 pm 0.0------ N/A 3.4
2024-05-21 05:10 pm 0.1------ N/A 3.2
2024-05-21 04:40 pm 0.0------ N/A 3.0
2024-05-21 04:10 pm 0.0------ N/A 2.9
2024-05-21 03:40 pm 0.0------ N/A 3.1
2024-05-21 03:10 pm 0.0------ N/A 3.0
2024-05-21 02:40 pm 0.0------ N/A 3.2
2024-05-21 02:10 pm 0.0------ N/A 3.0
2024-05-21 01:40 pm 0.0------ N/A 3.0
2024-05-21 01:10 pm 0.0------ N/A 3.5
2024-05-21 12:40 pm 0.0------ N/A 3.7
2024-05-21 12:10 pm 0.1------ N/A 3.2
2024-05-21 11:40 am 0.1------ N/A 4.2
2024-05-21 11:10 am 0.0------ N/A 3.6
2024-05-21 10:40 am 0.1------ N/A 4.3
2024-05-21 10:10 am 0.1------ N/A 3.9
2024-05-21 09:40 am 0.0------ N/A 3.6
2024-05-21 09:10 am 0.0------ N/A 3.6
2024-05-21 08:40 am 0.0------ N/A 3.4
2024-05-21 08:10 am 0.0------ N/A 3.5
2024-05-21 07:40 am 0.0------ N/A 2.9
2024-05-21 07:10 am 0.0------ N/A 3.0
2024-05-21 06:40 am 0.0------ N/A 3.4
2024-05-21 06:10 am 0.0------ N/A 3.0
2024-05-21 05:40 am 0.0------ N/A 2.7
2024-05-21 05:10 am 0.0------ N/A 2.7
2024-05-21 04:40 am 0.0------ N/A 2.5
2024-05-21 04:10 am 0.0------ N/A 2.9
2024-05-21 03:40 am 0.0------ N/A 2.9
2024-05-21 03:10 am 0.0------ N/A 2.9

Plot of wave energy versus frequency (and period)